Location: Bonningues
(50.7927°N, 2.0150°E)
Time: 04:54:59
(UTC+00:00)

Cosmos 2237 Rocket - Pass Details

Date: 08 August 2020
Orbit: 836 x 849 km, 71.0° (Epoch: 19 September)

Event Time Altitude Azimuth Distance (km) Brightness Sun altitude
Rises 22:34:09 0° 331° (NNW) 3,415 6.9 -21.0°
Reaches altitude 10° 22:37:18 10° 348° (NNW) 2,475 5.8 -21.1°
Maximum altitude 22:41:26 20° 35° (NE) 1,854 4.3 -21.4°
Drops below altitude 10° 22:45:32 10° 82° (E) 2,461 4.5 -21.6°
Enters shadow 22:47:03 - 92° (E) 2,890 4.8 -21.6°
